Beaufort, NC

8:39 AM EST on February 28, 2017 (GMT -0500)
Piney Island

Weather History for KNBT - December, 2013

Change the Weather History Date:

Wednesday, December 11, 2013

  Actual Average (KMRH) Record (KMRH)
Temperature  
Mean Temperature 42 °F -  
Max Temperature 48 °F 58 °F 72 °F (2007)
Min Temperature 37 °F 39 °F 20 °F (1977)
Degree Days  
Heating Degree Days 22    
Moisture  
Dew Point 29 °F    
Average Humidity 60    
Maximum Humidity 89    
Minimum Humidity 41    
Precipitation  
Precipitation 0.00 in - - ()
Sea Level Pressure  
Sea Level Pressure 30.38 in    
Wind  
Wind Speed 9 mph (NW)    
Max Wind Speed 14 mph    
Max Gust Speed -    
Visibility 10 miles    
Events      
Averages and records for this station are not official NWS values.
T = Trace of Precipitation, MM = Missing Value Source: NWS Daily Summary

Daily Weather History Graph

Daily Weather History Graph

Search for Another Location

Airport or City:

Trip Planner

Search our weather history database for the weather conditions in past years. The results will help you decide how hot, cold, wet, or windy it might be!

Date:

Astronomy

Dec. 11, 2013 Rise Set
Actual Time 7:03 AM EST 4:54 PM EST
Civil Twilight 6:35 AM EST 5:22 PM EST
Nautical Twilight 6:04 AM EST 5:54 PM EST
Astronomical Twilight 5:33 AM EST 6:25 PM EST
Moon 1:17 PM EST (12/11) 1:33 AM EST (12/11)
Length of Visible Light 10h 46m
Length of Day
9h 50m
Waxing Gibbous, 71% of the Moon is Illuminated
Dec 11
Waxing Gibbous
Dec 17
Full
Dec 25
Last Quarter
Jan 1
New
Jan 7
First Quarter

Hourly Weather History & Observations

Time (EST) Temp. Windchill Dew Point Humidity Pressure Visibility Wind Dir Wind Speed Gust Speed Precip Events Conditions
12:56 AM 42.1 °F 35.2 °F 30.0 °F 62% 30.33 in - NW 12.7 mph - N/A   Clear
1:56 AM 41.0 °F 33.5 °F 30.0 °F 65% 30.35 in - NNW 13.8 mph - N/A   Clear
2:56 AM 41.0 °F 35.2 °F 30.0 °F 65% 30.35 in - NNW 9.2 mph - N/A   Clear
3:56 AM 39.9 °F 34.5 °F 28.9 °F 65% 30.35 in - NW 8.1 mph - N/A   Clear
4:56 AM 39.0 °F 33.4 °F 30.0 °F 70% 30.37 in - NW 8.1 mph - N/A   Clear
5:56 AM 39.0 °F 32.8 °F 28.0 °F 65% 30.39 in - NNW 9.2 mph - N/A   Clear
6:56 AM 39.9 °F 33.4 °F 26.1 °F 58% 30.42 in 10.0 mi North 10.4 mph - N/A   Clear
7:56 AM 42.1 °F 35.7 °F 26.1 °F 53% 30.45 in - North 11.5 mph - N/A   Clear
8:56 AM 43.0 °F 36.8 °F 26.1 °F 51% 30.47 in - North 11.5 mph - N/A   Clear
9:56 AM 44.1 °F 38.6 °F 24.1 °F 45% 30.48 in - North 10.4 mph - N/A   Clear
10:56 AM 44.1 °F 39.5 °F 26.1 °F 49% 30.47 in - North 8.1 mph - N/A   Clear
11:56 AM 45.0 °F 43.5 °F 25.0 °F 46% 30.44 in - Variable 3.5 mph - N/A   Clear
12:56 PM 45.0 °F 40.6 °F 25.0 °F 46% 30.40 in - NNW 8.1 mph - N/A   Clear
1:56 PM 48.0 °F - 25.0 °F 41% 30.37 in - NW 5.8 mph - N/A   Clear
2:56 PM 46.9 °F - 26.1 °F 44% 30.35 in - North 5.8 mph - N/A   Clear
3:56 PM 48.0 °F - 27.0 °F 44% 30.35 in - NW 3.5 mph - N/A   Clear
4:56 PM 45.0 °F 43.5 °F 30.0 °F 56% 30.35 in - West 3.5 mph - N/A   Clear
5:56 PM 44.1 °F 42.5 °F 30.0 °F 58% 30.35 in - SSW 3.5 mph - N/A   Clear
6:56 PM 43.0 °F 41.3 °F 30.9 °F 62% 30.35 in - SSW 3.5 mph - N/A   Clear
7:56 PM 39.9 °F 35.8 °F 30.9 °F 70% 30.34 in - South 5.8 mph - N/A   Clear
8:56 PM 42.1 °F 39.2 °F 34.0 °F 73% 30.34 in - WSW 4.6 mph - N/A   Clear
9:56 PM 39.9 °F 35.8 °F 35.1 °F 83% 30.32 in - South 5.8 mph - N/A   Clear
10:56 PM 37.9 °F 34.4 °F 35.1 °F 89% 30.32 in - West 4.6 mph - N/A   Clear
11:56 PM 41.0 °F 38.0 °F 35.1 °F 79% 30.31 in - WNW 4.6 mph - N/A   Clear